Location: Baumgarten
(49.0970°N, 12.7493°E)
Time: 02:21:28
(UTC+00:00)

Cosmos 1624 Rocket - Pass Details

Date: 05 July 2020
Orbit: 758 x 783 km, 74.0° (Epoch: 04 August)

Event Time Altitude Azimuth Distance (km) Brightness Sun altitude
Rises 22:06:36 0° 336° (NNW) 3,249 9.0 -16.7°
Reaches altitude 10° 22:08:59 10° 336° (NNW) 2,315 7.8 -16.8°
Maximum altitude 22:14:15 86° 248° (WSW) 771 3.9 -17.0°
Enters shadow 22:16:54 30° 161° (SSE) 1,343 4.7 -17.1°
